Location: Newark
(48.3983°N, 16.0611°E)
Time: 00:30:40
(UTC+00:00)

ISS - Pass Details

Date: 31 January 2020
Orbit: 415 x 423 km, 51.6° (Epoch: 25 February)

Event Time Altitude Azimuth Distance (km) Brightness Sun altitude
Rises 18:16:25 0° 290° (WNW) 2,382 1.2 -24.0°
Reaches altitude 10° 18:18:32 10° 292° (WNW) 1,514 0.0 -24.3°
Enters shadow 18:20:35 34° 299° (WNW) 726 -2.1 -24.7°
